Location: Unspecified
(0.0000°N, 0.0000°E)
Time: 17:49:18
(UTC+00:00)

Tansei-1 - Visible Passes

Search period start: 17 May 2026 00:00
Search period end: 27 May 2026 00:00
Orbit: 982 x 1100 km, 29.7° (Epoch: 17 May)

Date Brightness Start Highest point End Pass type
(mag) Time Alt. Az. Time Alt. Az. Time Alt. Az.
17 May 9.8 03:19:50 10° NNW 03:24:12 18° NNE 03:28:44 10° ENE visible
17 May 8.0 05:10:40 10° NW 05:17:25 68° NNE 05:24:25 10° ESE visible
17 May 8.9 18:30:57 10° W 18:37:26 42° NNW 18:43:44 10° NE visible
17 May 10.1 20:29:03 10° NW 20:30:57 11° NNW 20:32:51 10° N visible
18 May 10.3 02:17:54 10° NE 02:17:54 10° NE 02:18:19 10° NE visible
18 May 8.7 04:04:00 10° NW 04:10:14 40° NNE 04:16:39 10° E visible
18 May 9.9 19:18:49 10° WNW 19:23:27 19° NNW 19:28:01 10° NNE visible
19 May 9.3 03:02:08 24° NNE 03:02:58 25° NNE 03:08:21 10° E visible
19 May 7.6 04:49:16 10° WNW 04:56:03 89° SSW 05:03:02 10° ESE visible
20 May 8.1 03:46:25 37° NNW 03:48:53 55° NNE 03:55:35 10° ESE visible
20 May 10.1 18:58:48 10° WNW 19:02:16 14° NNW 19:05:41 10° N visible
21 May 9.5 02:44:40 23° ENE 02:44:40 23° ENE 02:47:39 10° E visible
21 May 7.5 04:30:41 26° WNW 04:34:41 66° SSW 04:41:32 10° SE visible
22 May 7.9 03:28:52 58° E 03:28:52 58° E 03:34:20 10° ESE visible
22 May 8.5 05:14:54 10° W 05:20:37 29° SSW 05:26:30 10° SSE visible
22 May 10.4 18:39:54 10° NW 18:41:09 10° NNW 18:42:24 10° NNW visible
23 May 7.7 04:12:59 47° SW 04:13:20 48° SSW 04:19:53 10° SE visible
24 May 9.4 03:10:57 21° SE 03:10:57 21° SE 03:12:56 10° SE visible
24 May 8.8 04:56:57 18° SW 04:59:22 22° SSW 05:04:27 10° SSE visible
25 May 8.8 03:54:47 25° SSE 03:54:47 25° SSE 03:58:07 10° SE visible
26 May 9.1 04:38:28 16° SSW 04:38:28 16° SSW 04:42:10 10° S visible
